This demonstration page uses our WeatherBlox Daily Observations layout. Learn more.

Left ArrowRight Arrow

39.92423, -83.80882

Hourly Observations for February 1, 2019

Temp ( °F °C ) Dew Point ( °F °C ) Humidity (%) Winds ( mph kmh ) Pressure ( in mb ) Visibility ( mi km ) Precip ( " mm )
12:13 am 00:13 Cloudy with Light Snow 10 -12 9 -13 92 92 E 6 9 30.41 1030 1 2 0.01 0.25
12:51 am 00:51 Cloudy with Light Snow 10 -12 9 -13 92 92 E 6 9 30.40 1029 1 2 0.02 0.51
12:56 am 00:56 Cloudy with Light Snow 11 -11.7 9 -12.8 92 92 E 6 9 30.36 1028 1 2 0.02 0.51
1:10 am 01:10 Cloudy with Light Snow 10 -12 9 -13 92 92 E 7 11 30.38 1029 1 1 0.00 0.03
1:18 am 01:18 Cloudy with Light Snow 10 -12 9 -13 92 92 E 8 13 30.38 1029 1 2 0.00 0.03
1:29 am 01:29 Cloudy with Light Snow 10 -12 9 -13 92 92 E 9 15 30.37 1028 2 2 0.00 0.03
1:46 am 01:46 Cloudy with Light Snow 10 -12 9 -13 92 92 ESE 8 13 30.36 1028 3 5 0.00 0.03
1:56 am 01:56 Cloudy with Light Snow 11 -11.7 9 -12.8 92 92 ESE 9 15 30.33 1027 3 4 0.00 0.03
2:49 am 02:49 Cloudy with Light Snow 10 -12 9 -13 92 92 ESE 9 15 30.35 1028 4 6 0.00 0.03
2:56 am 02:56 Cloudy with Light Snow 10 -12.2 8 -13.3 92 92 ESE 8 13 30.31 1026 3 5 0.00 0.03
3:14 am 03:14 Cloudy with Light Snow 10 -12 9 -13 92 92 E 8 13 30.35 1028 3 4 0.00 0.03
3:29 am 03:29 Cloudy with Light Snow 10 -12 9 -13 92 92 ESE 6 9 30.35 1028 2 3 0.00 0.03
3:36 am 03:36 Cloudy with Light Snow 10 -12 9 -13 92 92 ESE 6 9 30.35 1028 2 3 0.00 0.03
3:49 am 03:49 Cloudy with Light Snow 10 -12 9 -13 92 92 E 8 13 30.35 1028 3 5 0.00 0.03
3:54 am 03:54 Cloudy with Light Snow 10 -12 9 -13 92 92 E 7 11 30.35 1028 2 3 0.00 0.03
3:56 am 03:56 Cloudy with Light Snow 10 -12.2 8 -13.3 92 92 E 8 13 30.32 1027 2 3 0.00 0.03
3:59 am 03:59 Cloudy with Light Snow 10 -12 9 -13 92 92 E 8 13 30.35 1028 2 3 0.00 0.03
4:36 am 04:36 Cloudy with Light Snow 10 -12 9 -13 92 92 E 9 15 30.34 1027 3 4 0.00 0.03
4:56 am 04:56 Cloudy with Light Snow 10 -12.2 8 -13.3 92 92 E 9 15 30.29 1026 3 5 0.00 0.03
5:06 am 05:06 Cloudy with Light Snow 10 -12 9 -13 92 92 E 9 15 30.33 1027 3 4 0.00 0.03
5:18 am 05:18 Cloudy with Light Snow 10 -12 9 -13 92 92 E 10 17 30.33 1027 2 3 0.00 0.03
5:23 am 05:23 Cloudy with Light Snow 10 -12 9 -13 92 92 E 9 15 30.33 1027 2 3 0.00 0.03
5:30 am 05:30 Cloudy with Light Snow 10 -12 9 -13 92 92 E 9 15 30.33 1027 2 3 0.00 0.03
5:53 am 05:53 Cloudy with Light Snow 10 -12 9 -13 92 92 E 9 15 30.34 1027 5 8 0.00 0.03
6:56 am 06:56 Cloudy with Light Snow 11 -11.7 8 -13.3 88 88 E 8 13 30.31 1026 9 14 0.00 0.03
7:42 am 07:42 Cloudy with Light Snow 10 -12 9 -13 92 92 E 9 15 30.35 1028 9 14 0.00 0.03
7:56 am 07:56 Cloudy with Light Snow 11 -11.7 9 -12.8 92 92 E 9 15 30.32 1027 9 14 0.00 0.03
8:56 am 08:56 Cloudy with Light Snow 11 -11.7 10 -12.2 96 96 E 8 13 30.34 1027 6 10 0.00 0.03
9:56 am 09:56 Cloudy with Light Snow 12 -11.1 10 -12.2 92 92 E 7 11 30.35 1028 9 14 0.00 0.03
10:17 am 10:17 Cloudy with Light Snow 12 -11 10 -12 92 92 E 8 13 30.38 1029 9 14 0.00 0.03
10:56 am 10:56 Cloudy 13 -10.6 11 -11.7 92 92 E 7 11 30.36 1028 9 14 0.00 0.03
11:56 am 11:56 Cloudy 14 -10 11 -11.7 88 88 E 6 9 30.37 1028 10 16 0.00 0.00
12:56 pm 12:56 Cloudy 15 -9.4 12 -11.1 88 88 E 6 9 30.35 1028 10 16 0.00 0.00
1:43 pm 13:43 Cloudy 16 -9 12 -11 86 86 NE 3 6 30.38 1029 10 16 0.00 0.00
1:56 pm 13:56 Cloudy 16 -8.9 13 -10.6 88 88 ENE 5 7 30.35 1028 10 16 0.00 0.00
2:56 pm 14:56 Cloudy 17 -8.3 14 -10 88 88 E 6 9 30.35 1028 10 16 0.00 0.00
3:04 pm 15:04 Cloudy 18 -8 14 -10 86 86 ESE 5 7 30.38 1029 10 16 0.00 0.00
3:56 pm 15:56 Cloudy 17 -8.3 14 -10 88 88 ESE 7 11 30.36 1028 10 16 0.00 0.00
4:56 pm 16:56 Cloudy 18 -7.8 15 -9.4 88 88 ESE 6 9 30.37 1029 10 16 0.00 0.00
5:56 pm 17:56 Cloudy 16 -8.9 13 -10.6 88 88 E 3 6 30.37 1029 10 16 0.00 0.00
6:25 pm 18:25 Partly Cloudy 16 -9 14 -10 93 93 ESE 5 7 30.41 1030 10 16 0.00 0.00
6:56 pm 18:56 Clear 11 -11.7 10 -12.2 96 96 E 6 9 30.39 1029 10 16 0.00 0.00
7:56 pm 19:56 Mostly Clear 11 -11.7 9 -12.8 92 92 ESE 5 7 30.39 1029 8 13 0.00 0.00
8:56 pm 20:56 Clear with Mist and Fog 10 -12.2 9 -12.8 95 95 E 3 6 30.40 1029 4 6 0.00 0.00
9:16 pm 21:16 Clear with Mist and Fog 7 -14 7 -14 100 100 ESE 5 7 30.44 1031 2 3 0.00 0.00
9:36 pm 21:36 Clear with Mist and Fog 9 -13 7 -14 92 92 ESE 7 11 30.43 1031 6 10 0.00 0.00
9:56 pm 21:56 Clear with Mist and Fog 7 -13.9 5 -15 91 91 SE 6 9 30.39 1029 5 8 0.00 0.00
10:56 pm 22:56 Clear with Mist and Fog 5 -15 3 -16.1 91 91 ESE 5 7 30.38 1029 5 8 0.00 0.00
11:56 pm 23:56 Clear with Mist and Fog 3 -16.1 1 -17.2 91 91 E 3 6 30.39 1029 6 10 0.00 0.00

Powered by AerisWeather